SCP
0 0 0 0 0 0 0 0 0 0 0 0 0 0 0 0 0 0 0 0 0 0 0 0 0 0 0 0 0 0 0 0 0 0 0 0 0 0
0 0 0 0 0 0 0 0 0 0 0 0 0 0 0 0 0 0 0 0 0 0 0 0 0 0 0 0 0 0 0 0 0 0 0 0 0 0
0 0 0 0 0 0 0 0 0 0 0 0 0 0 0 0 0 0 0 0 0 0 0 0 0 0 0 0 0 0 0 0 0 0 0 0 0 0
0 0 0 0 0 0 0 0 0 0 0 0 0 0 0 0 0 0 0 0 0 0 0 0 0 0 0 0 0 0 0 0 0 0 0 0 0 0
0 0 0 0 0 0 0 0 0 0 0 0 0 0 0 0 0 0 0 0 0 0 0 0 0 0 0 0 0 0 0 0 0 0 0 0 0 0
0 0 0 0 0 0 0 0 0 0 0 0 0 0 0 0 0 0 0 0 0 0 0 0 0 0 0 0 0 0 0 0 0 0 0 0 0 0
0 0 0 0 0 0 0 0 0 0 0 0 0 0 0 0 0 0 0 0 0 0 0 0 0 0 0 0 0 0 0 0 0 0 0 0 0 0
0 0 0 0 0 0 0 0 0 0 0 0 0 0 0 0 0 0 0 0 0 0 0 0 0 0 0 0 0 0 0 0 0 0 0 0 0 0
0 0 0 0 0 0 0 0 0 0 0 0 0 0 0 0 0 0 0 0 0 0 0 0 0 0 0 0 0 0 0 0 0 0 0 0 0 0
0 0 0 0 0 0 0 0 0 0 0 0 0 0 0 0 0 0 0 0 0 0 0 0 0 0 0 0 0 0 0 0 0 0 0 0 0 0
0 0 0 0 0 0 0 0 0 0 0 0 0 0 0 0 0 0 0 0 0 0 0 0 0 0 0 0 0 0 0 0 0 0 0 0 0 0
0 0 0 0 0 0 0 0 0 0 0 0 0 0 0 0 0 0 0 0 0 0 0 0 0 0 0 0 0 0 0 0 0 0 0 0 0 0
0 0 0 0 0 0 0 0 0 0 0 0 0 0 0 0 0 0 0 0 0 0 0 0 0 0 0 0 0 0 0 0 0 0 0 0 0 0
0 0 0 0 0 0 0 0 0 0 0 0 0 0 0 0 0 0 0 0 0 0 0 0 0 0 0 0 0 0 0 0 0 0 0 0 0 0
0 0 0 0 0 0 0 0 0 0 0 0 0 0 0 0 0 0 0 0 0 0 0 0 0 0 0 0 0 0 0 0 0 0 0 0 0 0
0 0 0 0 0 0 0 0 0 0 0 0 0 0 0 0 0 0 0 0 0 0 0 0 0 0 0 0 0 0 0 0 0 0 0 0 0 0
0 0 0 0 0 0 0 0 0 0 0 0 0 0 0 0 0 0 0 0 0 0 0 0 0 0 0 0 0 0 0 0 0 0 0 0 0 0
0 0 0 0 0 0 0 0 0 0 0 0 0 0 0 0 0 0 0 0 0 0 0 0 0 0 0 0 0 0 0 0 0 0 0 0 0 0
0 0 0 0 0 0 0 0 0 0 0 0 0 0 0 0 0 0 0 0 0 0 0 0 0 0 0 0 0 0 0 0 0 0 0 0 0 0
0 0 0 0 0 0 0 0 0 0 0 0 0 0 0 0 0 0 0 0 0 0 0 0 0 0 0 0 0 0 0 0 0 0 0 0 0 0
0 0 0 0 0 0 0 0 0 0 0 0 0 0 0 0 0 0 0 0 0 0 0 0 0 0 0 0 0 0 0 0 0 0 0 0 0 0
0 0 0 0 0 0 0 0 0 0 0 0 0 0 0 0 0 0 0 0 0 0 0 0 0 0 0 0 0 0 0 0 0 0 0 0 0 0
0 0 0 0 0 0 0 0 0 0 0 0 0 0 0 0 0 0 0 0 0 0 0 0 0 0 0 0 0 0 0 0 0 0 0 0 0 0
Wind_Speed
7 7 7 7 7 7 7 8 8 10 11 10 7 7 8 10 13 14 14 18 21 22 22 22 22 23 23 24 24 25 25 25 25 25 25 26 26 26
6 8 9 7 7 7 8 8 9 11 13 9 11 12 13 11 15 16 15 21 21 21 21 22 22 23 24 24 24 24 25 25 25 25 26 26 26 25
8 9 10 10 8 8 8 9 9 10 14 13 11 12 15 15 14 14 14 14 13 20 21 22 23 24 24 24 24 24 24 24 24 24 25 25 25 25
10 10 11 9 11 10 9 11 10 11 13 17 13 12 15 15 15 15 13 12 13 18 22 23 24 24 24 24 24 24 24 23 23 23 23 24 24 24
11 12 12 12 13 11 11 11 10 11 11 13 14 12 12 12 14 14 15 13 13 14 19 21 22 22 23 24 24 23 22 22 22 22 22 22 22 22
12 12 13 13 13 13 12 13 12 12 12 12 13 12 12 13 12 11 12 11 11 12 15 16 19 22 22 22 22 21 21 21 21 21 21 21 21 21
13 13 13 15 17 15 13 13 13 12 11 12 13 12 12 11 10 10 12 12 12 11 11 11 12 11 13 16 18 18 19 20 21 21 21 21 21 21
14 14 14 15 17 20 22 21 20 16 14 13 13 13 15 14 12 11 11 12 12 8 10 11 11 12 11 11 15 19 20 21 21 21 21 21 20 20
14 13 11 11 16 14 17 20 20 22 22 17 16 16 16 14 14 14 13 13 13 11 11 12 11 12 11 11 18 19 20 20 20 20 20 19 19 19
14 14 14 14 13 14 14 15 15 15 17 15 14 15 16 15 14 14 14 13 12 10 10 11 11 11 11 10 15 16 17 16 16 16 16 17 16 16
13 13 14 15 17 19 16 16 16 15 16 21 22 22 24 23 18 10 9 10 11 10 8 8 9 10 10 10 9 12 13 13 13 14 14 14 14 14
11 12 15 16 19 20 16 15 16 15 14 14 15 17 16 15 17 12 9 9 10 8 5 6 8 8 8 7 7 8 8 11 13 13 12 12 11 8
11 10 10 17 19 21 20 16 18 18 14 13 11 10 9 8 8 8 7 7 9 9 6 6 7 8 8 8 9 8 7 7 7 8 8 9 9 8
12 11 11 18 21 23 19 18 22 20 11 10 10 9 8 8 7 6 6 7 8 10 10 9 7 8 9 10 9 7 7 7 6 6 5 6 6 7
12 18 21 23 23 18 18 20 17 11 9 9 10 9 8 7 6 6 6 7 9 9 9 10 9 8 8 9 9 9 8 6 5 5 4 4 4 4
12 15 20 21 17 17 15 12 9 8 9 9 9 9 8 7 6 6 7 6 6 6 6 7 8 8 8 9 9 9 7 6 5 5 5 4 4 4
13 11 10 10 9 8 8 8 8 8 8 8 8 8 8 7 7 6 6 6 6 7 6 4 5 6 9 8 8 7 7 6 5 5 4 4 4 4
16 11 11 10 10 9 9 8 7 8 8 7 7 7 8 7 7 6 6 6 6 6 6 5 5 5 5 5 6 7 6 5 4 4 4 4 4 4
13 11 10 10 9 9 9 9 8 8 7 7 8 7 7 7 7 7 6 6 6 6 5 4 4 5 6 5 2 3 5 5 4 4 4 4 5 5
9 10 10 10 9 9 9 9 8 8 7 7 8 8 7 7 7 7 6 6 6 6 5 5 4 4 5 5 5 4 5 6 5 4 4 4 4 6
10 10 10 9 9 9 9 9 9 8 8 8 8 8 7 7 7 7 6 8 7 6 6 5 3 4 4 4 5 5 4 4 5 5 5 5 4 4
10 10 10 9 9 9 9 8 8 8 8 7 8 8 7 7 8 8 7 6 6 6 6 5 3 3 4 5 6 5 5 4 4 6 7 6 4 4
10 10 10 9 9 8 8 9 9 8 8 8 7 7 7 7 7 7 6 6 6 6 5 5 4 4 4 5 5 5 6 5 4 4 3 4 6 8
Wind_Direction
267 268 267 269 268 268 269 270 278 290 295 296 295 295 296 295 298 297 296 297 299 298 296 296 295 294 293 292 290 288 286 285 283 281 279 277 275 273
265 268 269 270 270 267 265 265 264 272 281 286 292 292 295 292 293 294 293 295 292 292 293 294 294 294 293 291 290 288 286 284 282 280 278 277 276 275
265 266 270 273 273 271 268 267 266 268 276 284 287 292 293 292 293 292 292 293 292 292 294 295 295 294 292 291 290 288 287 287 285 283 281 279 277 276
271 271 272 273 271 272 270 269 270 271 276 286 290 292 292 293 292 291 290 289 289 292 294 294 293 292 292 291 290 289 288 287 286 286 285 283 281 279
271 272 273 274 274 273 273 273 273 274 275 280 286 289 289 290 291 288 288 288 290 290 291 291 292 292 292 291 290 289 289 289 288 287 285 284 282 281
270 269 269 270 272 275 276 276 276 276 275 277 281 285 287 289 287 288 290 289 289 292 292 291 290 291 290 289 289 288 288 287 286 285 283 281 279 278
270 268 267 266 269 272 273 275 275 273 275 276 279 284 285 288 287 289 289 292 291 292 290 290 293 292 293 291 288 286 286 286 285 283 280 278 276 273
274 274 272 270 270 271 273 275 275 276 278 277 279 280 284 287 288 287 289 290 292 291 291 292 293 289 288 286 288 290 288 287 285 282 280 279 276 273
276 278 277 275 277 277 279 280 278 275 273 275 276 279 284 286 287 286 283 282 285 292 293 288 288 287 288 289 291 289 289 288 285 283 282 280 278 275
275 276 278 279 279 281 281 278 276 274 272 271 271 275 278 281 280 281 282 284 285 282 281 285 290 291 296 295 294 294 296 296 294 291 288 284 280 278
276 275 275 277 280 283 282 281 281 279 275 271 271 274 277 278 280 282 283 286 288 289 288 284 292 300 299 293 293 298 301 300 301 301 296 290 286 282
279 276 274 275 280 283 283 283 283 285 285 285 281 279 278 279 280 275 278 281 285 290 289 291 297 306 299 293 304 309 303 300 301 299 297 293 291 285
281 281 279 281 282 284 284 281 282 288 288 286 285 280 275 270 267 265 260 261 271 274 285 293 290 292 286 294 301 300 301 305 305 300 294 290 288 287
282 283 283 286 287 287 286 283 287 292 288 286 283 281 279 276 272 267 258 255 260 269 280 284 279 282 287 290 295 300 306 304 301 300 303 303 290 280
280 283 287 289 291 288 284 287 290 287 283 282 283 283 283 283 280 273 262 254 256 260 265 265 266 274 276 281 288 294 301 302 301 305 310 313 311 303
282 284 287 286 282 280 283 284 279 275 277 279 282 284 284 279 273 271 270 271 271 273 262 262 267 271 273 277 281 287 292 293 304 306 306 304 298 291
291 287 283 282 278 275 276 277 277 276 277 275 278 281 280 277 274 271 267 268 270 280 287 281 274 272 268 272 278 281 287 289 292 300 303 299 296 291
293 285 284 285 284 285 285 282 279 278 277 277 276 278 279 277 276 271 262 261 268 274 281 289 296 293 272 242 238 274 286 292 299 299 292 293 299 309
286 280 281 283 284 284 283 280 278 279 279 277 275 276 276 274 272 271 265 261 265 271 276 279 282 286 293 296 268 249 296 307 306 299 296 297 300 310
275 277 279 280 281 281 280 278 275 275 274 273 273 273 272 271 270 268 266 263 267 272 274 268 263 270 281 298 305 299 298 297 302 305 307 305 298 291
277 276 276 278 278 278 278 276 272 271 272 273 274 273 270 268 266 266 266 264 261 265 269 272 275 281 279 273 269 270 286 293 299 297 303 301 299 296
276 276 276 275 277 277 276 274 271 269 270 269 271 271 268 266 265 264 263 261 259 262 269 273 266 259 251 258 274 286 294 303 295 285 274 275 296 310
276 276 275 274 273 273 272 269 268 268 269 269 270 270 269 267 264 262 260 255 256 259 262 267 263 251 252 261 273 280 288 294 296 298 292 282 278 281